Regional Weather Roundup
Issued by NWS

Home | Current Version | Previous Version | Text Only | Print | Product List | Glossary Off
Versions: 1 2 3 4 5 6 7 8 9 10 11 12 13 14 15 16 17 18 19 20 21 22 23 24 25 26 27 28 29 30 31 32 33 34 35 36 37 38 39 40 41 42 43 44 45 46 47 48 49 50

000
ASUS43 KTOP 281508
RWRKS

WEATHER ROUNDUP FOR KANSAS
NATIONAL WEATHER SERVICE GOODLAND KS
1000 AM CDT THU MAY 28 2015

NOTE:  "FAIR" INDICATES FEW OR NO CLOUDS BELOW 12,000 FEET WITH NO
SIGNIFICANT WEATHER AND/OR OBSTRUCTIONS TO VISIBILITY.

KSZ001>006-013>018-027>032-041>047-281600-
NORTHWEST KANSAS

CITY           SKY/WX    TMP DP  RH WIND       PRES   REMARKS
GOODLAND       CLOUDY    64  59  83 S9        30.01F
HAYS           CLOUDY    64  55  72 E5        30.03R
HILL CITY      CLOUDY    64  58  80 SE7       30.04S
RUSSELL        PTSUNNY   68  63  84 SE10      30.00F
$$

KSZ061>065-074>080-084>089-281600-
SOUTHWEST KANSAS

CITY           SKY/WX    TMP DP  RH WIND       PRES   REMARKS
DODGE CITY     CLOUDY    63  57  81 N8        30.03R
ELKHART          N/A     62  55  77 S14         N/A
GARDEN CITY    CLOUDY    64  57  78 S15       30.00S
GREAT BEND     CLOUDY    64  61  88 E8        30.00F
LIBERAL        PTSUNNY   66  55  68 S23G35    30.02F
PRATT          CLOUDY    68  63  83 S9        30.02S
$$

KSZ066>073-081>083-090>101-281600-
SOUTHEAST KANSAS

CITY           SKY/WX    TMP DP  RH WIND       PRES   REMARKS
CHANUTE        CLOUDY    68  66  93 CALM      30.07R
COFFEYVILLE    TSTM      68  66  93 W9        30.08R FOG
HUTCHINSON     CLOUDY    69  63  81 SE8       30.00R
MEDICINE LODGE   N/A     67  65  93 S7        30.01R
NEWTON         CLOUDY    66  61  82 SE12      30.04F
PARSONS        CLOUDY    69  68  96 SW6       30.09R
WICHITA INTL   CLOUDY    69  64  84 SE16      30.01S
WICHITA JABRA  CLOUDY    67  64  90 SE10      30.03R
WICHITA MCCONL CLOUDY    68  64  88 E13       30.03S
WINFIELD       CLOUDY    68  65  90 SE12      30.06R
$$

KSZ007>012-019>026-033>040-048>060-102>105-281600-
NORTHEAST KANSAS

CITY           SKY/WX    TMP DP  RH WIND       PRES   REMARKS
CONCORDIA      CLOUDY    69  63  81 SE7       30.01F
EMPORIA        CLOUDY    65  63  93 SW13      30.07R
LAWRENCE       LGT RAIN  67  64  90 E10       30.07S
MANHATTAN      CLOUDY    68  65  90 NE3       30.02F
MARYSVILLE     CLOUDY    66  64  94 SE5       30.01F
OLATHE IND     CLOUDY    67  63  87 E8        30.09R
OLATHE EXE     CLOUDY    67  64  90 NE9       30.08R
SALINA         CLOUDY    69  64  84 SE8       30.01F
TOPEKA BILLARD CLOUDY    68  65  90 E9        30.05S
TOPEKA FORBES  CLOUDY    69  65  86 E8        30.04F
$$



USA.gov is the U.S. government's official web portal to all federal, state and local government web resources and services.